[[{"header":{"parameterUnit":"m.s-1","parameterCategory":1,"la1":30.2991,"la2":30.254,"lo1":-89.0895,"lo2":-89.0444,"dy":0.0017,"dx":0.0017,"nx":28,"ny":28,"refTime":"2024-08-19T03:00:00:Z","depth":0,"parameterNumber":2,"parameterNumberName":"U-component_of_WINDS"},"data":[0,0,0,0,0,0,0,0,0,0,0,0,0,0,0,0,0,0,0,0,0,0,0,0,0,0,0,0,0,0,0,0,0,0,0,0,0,0,0,0,0,0,0,0,0,0,0,0,0,0,0,0,0,0,0,0,0,0,2.555,2.555,0,2.5542,2.5542,2.5542,2.5416,2.5412,2.5409,2.5406,2.5401,2.5403,2.5406,0,0,0,0,0,0,0,0,0,0,0,0,0,2.5462,2.5464,2.555,2.555,2.555,2.5542,2.5542,2.5542,2.5416,2.5412,2.5408,2.5405,2.54,2.5403,2.5406,0,0,0,0,0,0,0,0,0,0,0,0,0,2.5482,2.5465,2.555,2.5486,2.5481,2.5542,2.5542,2.5542,2.5417,2.5412,2.5407,2.5403,2.5398,2.5403,2.5407,2.553,0,0,2.542,2.5422,0,0,0,0,0,0,0,0,2.5481,2.5485,2.5496,2.5491,2.5484,2.5475,2.5508,2.5538,2.5418,2.5441,2.5406,2.5401,2.5429,2.5431,2.544,2.5529,2.5529,2.542,2.5423,2.5425,2.5426,0,0,0,0,0,0,0,2.5479,2.5485,2.5547,2.5496,2.5489,2.546,2.5457,2.5513,2.5463,2.5439,2.543,2.543,2.5425,2.5436,2.5439,2.5529,2.542,2.5424,2.5427,2.5428,2.5722,2.5727,0,0,0,0,0,0,2.5486,2.5484,2.5547,2.5547,2.5471,2.5465,2.5462,2.5483,2.5462,2.5454,2.5435,2.5425,2.5431,2.5434,2.5438,2.5582,2.5425,2.5429,2.5431,2.5717,2.5723,2.5729,0,0,0,0,0,0,2.5485,2.5493,2.5548,2.5513,2.5518,2.5472,2.5496,2.5485,2.5496,2.5458,2.5449,2.5455,2.5427,2.5432,2.5508,2.558,2.5431,2.5434,2.5711,2.5719,2.5726,2.587,0,0,0,0,0,0,2.5483,2.5493,2.5538,2.5515,2.552,2.5617,2.55,2.5489,2.5503,2.549,2.5474,2.5467,2.5424,2.5503,2.5513,2.5583,2.5438,2.5704,2.5714,2.5724,2.5859,2.5882,2.5902,0,0,0,0,0,2.548,2.5579,2.5541,2.5549,2.5575,2.5621,2.5624,2.5572,2.5509,2.5555,2.5532,2.5468,2.5571,2.5512,2.5522,2.5595,2.5699,2.5711,2.5723,2.5849,2.5878,2.5901,0,0,0,0,0,0,2.5612,2.5575,2.5532,2.5626,2.5628,2.56,2.5655,2.5603,2.5623,2.561,2.5544,2.5542,2.5629,2.5619,2.5554,2.5714,2.5624,2.5639,2.5717,2.5743,2.5765,2.5765,2.5441,0,0,0,0,0,2.5652,2.5691,2.5657,2.5744,2.5747,2.5702,2.572,2.5679,2.5679,2.5679,2.566,2.5663,2.5696,2.5719,2.5747,2.5857,2.5853,2.5913,2.5935,2.5952,2.5966,2.6025,2.6052,2.5768,2.5768,2.5767,0,0,2.5735,2.5719,2.5748,2.577,2.5766,2.581,2.5703,2.5753,2.5786,2.5686,2.5757,2.5745,2.5744,2.5838,2.5879,2.5833,2.6043,2.5967,2.5982,2.5985,2.604,2.6067,2.6091,2.5776,2.5774,2.5773,0,0,2.5908,2.59,2.5972,2.5971,2.5968,2.5937,2.5955,2.5936,2.5924,2.5994,2.5921,2.596,2.6018,2.6021,2.603,2.6209,2.6152,2.622,2.6332,2.6391,2.6414,2.6433,2.6498,2.6522,2.6233,2.6234,2.6234,0,2.6011,2.6073,2.6016,2.6072,2.6085,2.5998,2.6071,2.6074,2.608,2.6092,2.604,2.6113,2.6106,2.6201,2.6245,2.6255,2.6274,2.6221,2.6415,2.6434,2.6452,2.6513,2.6538,2.6242,2.6241,2.624,2.624,0,2.6202,2.6247,2.6306,2.6314,2.6334,2.6399,2.6353,2.638,2.6339,2.6315,2.6389,2.6378,2.6404,2.6424,2.6384,2.6514,2.6486,2.6426,2.6334,2.6488,2.6545,2.6568,2.6254,2.6251,2.6249,2.6247,0,0,2.6455,2.6434,2.6456,2.646,2.6452,2.6486,2.6548,2.6573,2.6598,2.6607,2.6658,2.6711,2.6656,2.6667,2.6627,2.6679,2.6824,2.6613,2.6612,2.6653,2.6969,2.7014,2.7042,2.6787,2.6791,2.6794,2.6969,0,2.6623,2.6727,2.6679,2.6789,2.6831,2.6751,2.6805,2.6807,2.6788,2.6822,2.68,2.6839,2.6763,2.6769,2.6817,2.6796,2.6887,2.6783,2.6835,2.6838,2.6838,2.7071,2.7118,2.7284,2.6991,2.6995,2.6997,0,2.6832,2.685,2.6965,2.6951,2.6967,2.7017,2.7037,2.707,2.7072,2.7054,2.7068,2.7018,2.708,2.699,2.7076,2.7006,2.7025,2.7019,2.7024,2.7027,2.6927,2.7081,2.7335,2.736,2.7031,2.7029,2.7026,0,2.7007,2.706,2.7136,2.7142,2.7127,2.7165,2.7161,2.7157,2.7177,2.7195,2.7207,2.7234,2.7248,2.727,2.7229,2.7167,2.7321,2.7227,2.7309,2.7311,2.7345,2.7343,2.7606,2.7358,2.7357,2.7357,2.7356,0,2.72,2.7273,2.7214,2.7261,2.7342,2.7287,2.7369,2.7356,2.7355,2.7399,2.7332,2.7375,2.7318,2.7356,2.7325,2.7402,2.7409,2.7397,2.7388,2.7403,2.7405,2.7414,2.7402,2.7363,2.7362,2.7361,2.7359,0,2.7407,2.7371,2.7449,2.743,2.7427,2.7488,2.7472,2.7516,2.7493,2.755,2.756,2.7524,2.7566,2.7527,2.7567,2.7546,2.7649,2.7623,2.7648,2.7641,2.7726,2.7719,2.8004,2.8039,2.7768,2.7771,2.7773,0,2.7532,2.7587,2.7575,2.76,2.76,2.7641,2.7661,2.761,2.7634,2.7642,2.7685,2.7721,2.7747,2.7818,2.7797,2.7828,2.7802,2.79,2.7806,2.782,2.7804,2.7801,2.7807,2.7919,2.7922,2.7925,2.7927,0,2.7759,2.7739,2.7769,2.7795,2.7821,2.7838,2.7851,2.7875,2.7824,2.7854,2.7896,2.7917,2.7958,2.7996,2.802,2.8017,2.7965,2.7957,2.7978,2.7994,2.8006,2.8001,2.7701,2.795,2.7948,2.7946,2.7945,2.7944,2.7929,2.7975,2.7974,2.8012,2.8016,2.8031,2.8071,2.8054,2.8088,2.8118,2.8086,2.8139,2.8142,2.8169,2.8173,2.8214,2.8173,2.8203,2.821,2.8219,2.8231,2.8001,2.8218,2.8218,2.8217,2.8216,2.8216,0,2.8152,2.8149,2.8184,2.8204,2.8234,2.8183,2.8195,2.8224,2.827,2.8277,2.8305,2.8355,2.8392,2.8375,2.8407,2.8443,2.842,2.8454,2.845,2.8451,2.8266,2.8245,2.8472,2.8472,2.8472,2.8472,2.8472,2.8472,2.8272,2.8347,2.8328,2.8407,2.8403,2.8453,2.8465,2.8478,2.8484,2.8543,2.8573,2.8562,2.856,2.8592,2.8624,2.8618,2.8634,2.8676,2.8662,2.8489,2.8464,2.844,2.8419,2.868,2.868,2.8844,2.8845,2.8846]},{"header":{"parameterUnit":"m.s-1","parameterCategory":1,"la1":30.2991,"la2":30.254,"lo1":-89.0895,"lo2":-89.0444,"dy":0.0017,"dx":0.0017,"nx":28,"ny":28,"refTime":"2024-08-19T03:00:00:Z","depth":0,"parameterNumber":3,"parameterNumberName":"V-component_of_WINDS"},"data":[0,0,0,0,0,0,0,0,0,0,0,0,0,0,0,0,0,0,0,0,0,0,0,0,0,0,0,0,0,0,0,0,0,0,0,0,0,0,0,0,0,0,0,0,0,0,0,0,0,0,0,0,0,0,0,0,0,0,2.3285,2.3288,0,2.349,2.3492,2.3495,2.3498,2.3495,2.3493,2.349,2.3705,2.3713,2.3721,0,0,0,0,0,0,0,0,0,0,0,0,0,2.2899,2.2906,2.3285,2.3288,2.329,2.349,2.3492,2.3495,2.3498,2.3495,2.3492,2.3489,2.3702,2.3712,2.3721,0,0,0,0,0,0,0,0,0,0,0,0,0,2.3082,2.2908,2.3285,2.3316,2.332,2.3489,2.3492,2.3496,2.3499,2.3495,2.3491,2.3487,2.3699,2.3711,2.3723,2.3876,0,0,2.376,2.3765,0,0,0,0,0,0,0,0,2.3071,2.3096,2.3309,2.3314,2.332,2.3464,2.3435,2.3623,2.35,2.3431,2.349,2.3486,2.3628,2.3646,2.3693,2.3886,2.3895,2.3761,2.3768,2.3774,2.3777,0,0,0,0,0,0,0,2.3059,2.3087,2.3366,2.3312,2.3318,2.332,2.3342,2.3471,2.3549,2.3437,2.3438,2.3462,2.363,2.3681,2.3698,2.3898,2.3761,2.3771,2.3779,2.3784,2.4222,2.4226,0,0,0,0,0,0,2.3039,2.3076,2.336,2.3372,2.3183,2.333,2.3354,2.3422,2.3548,2.3563,2.3465,2.3461,2.3662,2.3684,2.3706,2.3891,2.3774,2.3785,2.3792,2.4218,2.4223,2.4228,0,0,0,0,0,0,2.3031,2.3064,2.3352,2.3225,2.3261,2.3341,2.3417,2.3428,2.3479,2.3569,2.3583,2.3502,2.366,2.3688,2.3832,2.3898,2.379,2.3802,2.4213,2.4219,2.4225,2.4263,0,0,0,0,0,0,2.302,2.3061,2.312,2.3226,2.3268,2.3474,2.3421,2.3435,2.3499,2.3496,2.3607,2.3622,2.3659,2.3814,2.3844,2.3913,2.3811,2.4207,2.4216,2.4223,2.4256,2.427,2.4282,0,0,0,0,0,2.3006,2.3125,2.3123,2.3158,2.3343,2.3478,2.3503,2.3541,2.3504,2.3564,2.3621,2.3619,2.3885,2.3828,2.3863,2.3936,2.4203,2.4213,2.4223,2.4251,2.4267,2.4282,0,0,0,0,0,0,2.3028,2.3139,2.3139,2.3295,2.3377,2.3478,2.3556,2.3558,2.3654,2.3647,2.3692,2.3718,2.386,2.3912,2.3847,2.4089,2.404,2.4057,2.405,2.4066,2.4079,2.4064,2.3821,0,0,0,0,0,2.305,2.315,2.3242,2.3371,2.3412,2.3476,2.3537,2.3559,2.3646,2.3681,2.3749,2.3835,2.3937,2.4005,2.4105,2.4263,2.4286,2.433,2.4343,2.4353,2.4368,2.4452,2.4472,2.426,2.426,2.426,0,0,2.3099,2.3172,2.3233,2.3377,2.3443,2.3545,2.3506,2.3617,2.3693,2.3699,2.3838,2.389,2.3988,2.4139,2.4209,2.4187,2.4431,2.4365,2.4373,2.4382,2.4464,2.4484,2.4502,2.4266,2.4265,2.4264,0,0,2.324,2.3305,2.3419,2.3484,2.3583,2.3624,2.3651,2.3752,2.3786,2.3925,2.393,2.4022,2.4199,2.4267,2.4326,2.4486,2.4487,2.4518,2.4585,2.4667,2.4684,2.4699,2.4755,2.4775,2.4532,2.4532,2.4532,0,2.3289,2.3442,2.3477,2.3587,2.3649,2.3656,2.377,2.3833,2.396,2.4003,2.3976,2.4195,2.4262,2.4428,2.4466,2.4514,2.4545,2.4506,2.4678,2.4694,2.4709,2.4762,2.4784,2.4535,2.4535,2.4534,2.4534,0,2.3496,2.3601,2.3681,2.38,2.3872,2.3984,2.4035,2.4104,2.4118,2.4162,2.4302,2.4382,2.4496,2.4537,2.4554,2.4704,2.4687,2.4669,2.4621,2.4731,2.4782,2.4804,2.4539,2.4538,2.4537,2.4536,0,0,2.366,2.3793,2.3822,2.3875,2.3982,2.4065,2.4175,2.4285,2.4341,2.4428,2.4521,2.4668,2.465,2.4716,2.474,2.4812,2.4932,2.4785,2.4788,2.4809,2.51,2.5113,2.5136,2.4932,2.4936,2.4939,2.5091,0,2.3812,2.4007,2.404,2.4212,2.4309,2.4314,2.441,2.4486,2.4529,2.4618,2.4665,2.4768,2.4738,2.4777,2.4848,2.4902,2.4991,2.4892,2.502,2.5024,2.4995,2.5164,2.5179,2.5319,2.5112,2.5115,2.5118,0,2.4016,2.4104,2.4284,2.4374,2.4416,2.4502,2.4603,2.4688,2.4773,2.4799,2.4869,2.4884,2.4998,2.4943,2.5101,2.5032,2.5086,2.512,2.5126,2.514,2.5078,2.5182,2.5365,2.5385,2.515,2.5147,2.5145,0,2.4116,2.428,2.4408,2.4453,2.4562,2.4622,2.467,2.4751,2.4814,2.4902,2.4942,2.5043,2.5099,2.5176,2.5217,2.5173,2.537,2.532,2.5395,2.5394,2.5438,2.5435,2.5631,2.5472,2.5472,2.5471,2.5471,0,2.4282,2.4393,2.4454,2.4533,2.4655,2.4691,2.4812,2.4859,2.493,2.5018,2.5029,2.5111,2.5159,2.5249,2.5281,2.5405,2.543,2.5454,2.5462,2.5454,2.545,2.549,2.5482,2.5477,2.5476,2.5474,2.5473,0,2.4416,2.4462,2.4602,2.4691,2.4716,2.4802,2.488,2.4956,2.4996,2.5107,2.5135,2.5199,2.5304,2.5352,2.5483,2.5504,2.5645,2.5646,2.5616,2.5618,2.569,2.5683,2.592,2.5952,2.5771,2.5773,2.5774,0,2.452,2.4604,2.4701,2.4759,2.4808,2.4903,2.4965,2.5003,2.5067,2.5168,2.5232,2.5336,2.5422,2.5589,2.5648,2.5747,2.575,2.5826,2.5765,2.5753,2.575,2.5744,2.5752,2.5837,2.5839,2.5841,2.5842,0,2.4698,2.4715,2.4804,2.4899,2.4973,2.5051,2.5127,2.5174,2.5223,2.5295,2.5401,2.5467,2.5597,2.5701,2.5802,2.5852,2.5855,2.586,2.5882,2.5875,2.5854,2.5865,2.5646,2.5855,2.5854,2.5853,2.5852,2.5851,2.482,2.4893,2.4972,2.5069,2.5129,2.5199,2.5274,2.5322,2.5411,2.5519,2.5535,2.5648,2.5727,2.5863,2.5916,2.6005,2.5986,2.6019,2.6028,2.6035,2.6039,2.5839,2.6023,2.6023,2.6023,2.6023,2.6022,0,2.4998,2.5047,2.5136,2.524,2.5316,2.5309,2.5392,2.5456,2.5555,2.5628,2.571,2.583,2.5929,2.5993,2.6093,2.6151,2.6155,2.6176,2.6172,2.6183,2.605,2.602,2.6171,2.6171,2.6171,2.6171,2.6171,2.6171,2.5099,2.5222,2.5248,2.54,2.545,2.5558,2.5606,2.567,2.5727,2.586,2.5941,2.5982,2.6051,2.6154,2.6244,2.626,2.6296,2.6319,2.6334,2.6209,2.6193,2.6178,2.615,2.6326,2.6326,2.646,2.6461,2.6462]}]]